Weather History for Bogalusa, LA

Change the Weather History Date:

Tuesday, January 7, 2014

  Actual Average Record
Temperature  
Mean Temperature 28 °F -  
Max Temperature 38 °F 62 °F 60 °F (2013)
Min Temperature 17 °F 40 °F 17 °F (2014)
Degree Days  
Heating Degree Days 38    
Moisture  
Dew Point 12 °F    
Average Humidity 59    
Maximum Humidity 86    
Minimum Humidity 25    
Precipitation  
Precipitation 0.00 in - - ()
Sea Level Pressure  
Sea Level Pressure 30.61 in    
Wind  
Wind Speed 2 mph (NNE)    
Max Wind Speed 8 mph    
Max Gust Speed -    
Visibility 10 miles    
Events      
Averages and records for this station are not official NWS values.
T = Trace of Precipitation, MM = Missing Value Source: NWS Daily Summary

Daily Weather History Graph

Daily Weather History Graph

Search for Another Location

Airport:

Trip Planner

Search our weather history database for the weather conditions in past years. The results will help you decide how hot, cold, wet, or windy it might be!

Date:

Astronomy

Jan. 07, 2014 Rise Set
Actual Time 6:58 AM CST 5:13 PM CST
Civil Twilight 6:31 AM CST 5:40 PM CST
Nautical Twilight 6:01 AM CST 6:09 PM CST
Astronomical Twilight 5:32 AM CST 6:39 PM CST
Moon 11:16 AM CST (1/7) No Moon Set
Length of Visible Light 11h 08m
Length of Day
10h 15m
Waxing Crescent, 46% of the Moon is Illuminated
Jan 7
Waxing Crescent
Jan 7
First Quarter
Jan 15
Full
Jan 23
Last Quarter
Jan 30
New

Hourly Weather History & Observations

Time (CST) Temp. Windchill Dew Point Humidity Pressure Visibility Wind Dir Wind Speed Gust Speed Precip Events Conditions
12:15 AM 22.6 °F - 15.1 °F 73% 30.62 in 10.0 mi Calm Calm - N/A   Unknown
12:35 AM 22.1 °F - 14.9 °F 74% 30.62 in 10.0 mi Calm Calm - N/A   Unknown
12:55 AM 22.6 °F - 14.9 °F 72% 30.62 in 10.0 mi Calm Calm - N/A   Unknown
1:15 AM 22.1 °F - 14.5 °F 73% 30.62 in 10.0 mi Calm Calm - N/A   Unknown
1:35 AM 21.6 °F - 15.4 °F 77% 30.63 in 10.0 mi Calm Calm - N/A   Unknown
1:55 AM 21.2 °F - 15.4 °F 78% 30.62 in 10.0 mi Calm Calm - N/A   Unknown
2:15 AM 21.2 °F - 14.7 °F 76% 30.63 in 10.0 mi Calm Calm - N/A   Unknown
2:35 AM 20.8 °F - 13.6 °F 74% 30.64 in 10.0 mi Calm Calm - N/A   Unknown
2:55 AM 20.7 °F - 14.2 °F 76% 30.64 in 10.0 mi Calm Calm - N/A   Unknown
3:15 AM 20.3 °F - 14.9 °F 80% 30.64 in 10.0 mi Calm Calm - N/A   Unknown
3:35 AM 19.6 °F - 14.5 °F 81% 30.64 in 10.0 mi Calm Calm - N/A   Unknown
3:55 AM 18.5 °F - 13.6 °F 81% 30.64 in 10.0 mi Calm Calm - N/A   Unknown
4:15 AM 19.0 °F - 14.4 °F 82% 30.63 in 10.0 mi Calm Calm - N/A   Unknown
4:35 AM 18.5 °F - 14.0 °F 83% 30.63 in 10.0 mi Calm Calm - N/A   Unknown
4:55 AM 18.5 °F - 14.0 °F 83% 30.64 in 10.0 mi Calm Calm - N/A   Unknown
5:15 AM 18.5 °F - 13.6 °F 81% 30.65 in 10.0 mi Calm Calm - N/A   Unknown
5:35 AM 18.1 °F - 13.6 °F 83% 30.65 in 10.0 mi Calm Calm - N/A   Unknown
5:55 AM 18.1 °F - 13.5 °F 82% 30.65 in 10.0 mi Calm Calm - N/A   Unknown
6:15 AM 18.3 °F - 13.3 °F 81% 30.66 in 10.0 mi Calm Calm - N/A   Unknown
6:35 AM 17.4 °F 12.1 °F 12.0 °F 79% 30.66 in 10.0 mi NNW 3.5 mph - N/A   Unknown
6:55 AM 17.4 °F - 12.6 °F 81% 30.66 in 10.0 mi Calm Calm - N/A   Unknown
7:15 AM 17.4 °F - 12.7 °F 82% 30.66 in 10.0 mi Calm Calm - N/A   Unknown
7:35 AM 17.6 °F 10.7 °F 12.2 °F 79% 30.67 in 10.0 mi North 4.6 mph - N/A   Unknown
7:55 AM 19.6 °F 11.7 °F 12.9 °F 75% 30.67 in 10.0 mi North 5.8 mph - N/A   Unknown
8:15 AM 19.8 °F 13.2 °F 12.2 °F 72% 30.68 in 10.0 mi NNE 4.6 mph - N/A   Unknown
8:35 AM 22.3 °F 14.9 °F 12.6 °F 66% 30.69 in 10.0 mi NE 5.8 mph - N/A   Unknown
8:55 AM 23.7 °F 15.6 °F 9.0 °F 53% 30.69 in 10.0 mi NE 6.9 mph - N/A   Unknown
9:15 AM 25.7 °F 18.0 °F 9.5 °F 50% 30.69 in 10.0 mi ENE 6.9 mph - N/A   Unknown
9:35 AM 25.5 °F 17.8 °F 4.8 °F 41% 30.70 in 10.0 mi North 6.9 mph - N/A   Unknown
9:55 AM 26.2 °F 19.6 °F 7.0 °F 44% 30.70 in 10.0 mi North 5.8 mph - N/A   Unknown
10:15 AM 26.4 °F 19.8 °F 5.4 °F 41% 30.70 in 10.0 mi North 5.8 mph - N/A   Unknown
10:35 AM 26.8 °F 21.4 °F 5.5 °F 40% 30.69 in 10.0 mi NNE 4.6 mph - N/A   Unknown
10:55 AM 28.2 °F 20.2 °F 5.7 °F 39% 30.68 in 10.0 mi North 8.1 mph - N/A   Unknown
11:15 AM 29.3 °F - 4.6 °F 35% 30.67 in 10.0 mi Calm Calm - N/A   Unknown
11:35 AM 31.1 °F 27.7 °F 6.1 °F 35% 30.66 in 10.0 mi NE 3.5 mph - N/A   Unknown
11:55 AM 32.0 °F 25.6 °F 5.2 °F 32% 30.64 in 10.0 mi ENE 6.9 mph - N/A   Unknown
12:15 PM 31.8 °F 28.5 °F 4.3 °F 31% 30.63 in 10.0 mi WNW 3.5 mph - N/A   Unknown
12:35 PM 32.9 °F 26.7 °F 4.5 °F 30% 30.61 in 10.0 mi NE 6.9 mph - N/A   Unknown
12:55 PM 33.8 °F 27.7 °F 5.2 °F 30% 30.60 in 10.0 mi NNE 6.9 mph - N/A   Unknown
1:15 PM 34.5 °F 29.4 °F 5.7 °F 30% 30.59 in 10.0 mi NNE 5.8 mph - N/A   Unknown
1:35 PM 34.5 °F - 4.6 °F 29% 30.60 in 10.0 mi Calm Calm - N/A   Unknown
1:55 PM 35.4 °F 29.0 °F 5.7 °F 29% 30.59 in 10.0 mi NNE 8.1 mph - N/A   Unknown
2:15 PM 36.7 °F 32.9 °F 6.1 °F 28% 30.59 in 10.0 mi NW 4.6 mph - N/A   Unknown
2:35 PM 36.5 °F 32.7 °F 5.9 °F 28% 30.58 in 10.0 mi NE 4.6 mph - N/A   Unknown
2:55 PM 37.6 °F 34.0 °F 5.7 °F 27% 30.57 in 10.0 mi NNE 4.6 mph - N/A   Unknown
3:15 PM 38.8 °F 33.8 °F 5.7 °F 25% 30.57 in 10.0 mi NE 6.9 mph - N/A   Unknown
3:35 PM 36.5 °F 31.8 °F 5.7 °F 28% 30.56 in 10.0 mi NE 5.8 mph - N/A   Unknown
3:55 PM 37.2 °F 31.2 °F 6.8 °F 28% 30.57 in 10.0 mi North 8.1 mph - N/A   Unknown
4:15 PM 35.2 °F 28.8 °F 7.2 °F 31% 30.57 in 10.0 mi North 8.1 mph - N/A   Unknown
4:35 PM 34.7 °F 28.1 °F 7.3 °F 32% 30.56 in 10.0 mi North 8.1 mph - N/A   Unknown
4:55 PM 33.8 °F 27.0 °F 7.2 °F 33% 30.56 in 10.0 mi NNE 8.1 mph - N/A   Unknown
5:15 PM 33.8 °F 29.6 °F 7.3 °F 33% 30.55 in 10.0 mi North 4.6 mph - N/A   Unknown
5:35 PM 32.2 °F - 8.8 °F 38% 30.55 in 10.0 mi Calm Calm - N/A   Unknown
5:55 PM 32.9 °F - 5.9 °F 32% 30.55 in 10.0 mi Calm Calm - N/A   Unknown
6:15 PM 31.8 °F - 14.0 °F 48% 30.56 in 10.0 mi Calm Calm - N/A   Unknown
6:35 PM 29.5 °F - 16.7 °F 59% 30.56 in 10.0 mi Calm Calm - N/A   Unknown
6:55 PM 30.2 °F - 14.9 °F 53% 30.56 in 10.0 mi Calm Calm - N/A   Unknown
7:15 PM 29.3 °F - 15.8 °F 57% 30.57 in 10.0 mi Calm Calm - N/A   Unknown
7:35 PM 28.4 °F - 13.6 °F 54% 30.56 in 10.0 mi Calm Calm - N/A   Unknown
7:55 PM 28.4 °F - 16.0 °F 60% 30.56 in 10.0 mi Calm Calm - N/A   Unknown
8:15 PM 27.9 °F - 16.3 °F 62% 30.57 in 10.0 mi Calm Calm - N/A   Unknown
8:35 PM 27.9 °F - 20.3 °F 73% 30.57 in 10.0 mi Calm Calm - N/A   Unknown
8:55 PM 26.4 °F - 18.0 °F 70% 30.58 in 10.0 mi Calm Calm - N/A   Unknown
9:15 PM 26.2 °F - 18.3 °F 72% 30.57 in 10.0 mi Calm Calm - N/A   Unknown
9:35 PM 24.4 °F - 19.4 °F 81% 30.57 in 10.0 mi Calm Calm - N/A   Unknown
9:55 PM 24.4 °F - 18.7 °F 79% 30.57 in 10.0 mi Calm Calm - N/A   Unknown
10:15 PM 23.4 °F - 18.7 °F 82% 30.56 in 10.0 mi Calm Calm - N/A   Unknown
10:35 PM 23.7 °F - 19.8 °F 85% 30.55 in 10.0 mi Calm Calm - N/A   Unknown
10:55 PM 23.0 °F - 19.2 °F 85% 30.54 in 10.0 mi Calm Calm - N/A   Unknown
11:15 PM 23.0 °F - 19.2 °F 85% 30.54 in 10.0 mi Calm Calm - N/A   Unknown
11:35 PM 23.4 °F - 18.7 °F 82% 30.54 in 10.0 mi Calm Calm - N/A   Unknown
11:55 PM 22.5 °F - 18.9 °F 86% 30.54 in 10.0 mi Calm Calm - N/A   Unknown